Weather observations for the past three days for
Halifax-Northampton Regional Airport
Metric (Imperial)
Date Time (edt) Wind (kph) Vis. (km) Weather Sky Cond. Temperature (ºC) Relative Humidity Wind Chill (°C) Heat Index (°C) Pressure Precipitation (cm)
Air Dwpt 6 hour altimeter (cm) sea level (mb) 1 hr 3 hr 6 hr
Max. Min.
07 02:55 SW 11 16.09 Overcast BKN055 BKN065 OVC100 18 18 100% 75.84 0.0
07 02:35 SW 11 16.09 Mostly Cloudy BKN070 BKN080 BKN120 18 18 100% 75.84 0.0
07 02:15 W 9 16.09 Fair CLR 18 18 100% 75.82 0.0
07 01:55 SW 13 16.09 Light Drizzle CLR 18 18 100% 75.84 0.0 0.03
07 01:35 SW 9 16.09 Light Rain SCT046 SCT060 BKN110 18 18 100% 75.84 0.0 0.03
07 01:15 SW 13 16.09 Drizzle BKN110 18 18 100% 75.95 0.0
07 00:55 W 7 16.09 Light Rain SCT050 SCT100 BKN120 18 18 100% 75.95 0.0
07 00:35 Calm 16.09 Light Drizzle SCT050 18 18 100% 75.9 0.0
07 00:15 Calm 16.09 Light Drizzle SCT110 18 18 100% 75.9 0.0
06 23:55 SW 6 16.09 Drizzle BKN110 18 18 100% 75.87 0.0
06 23:35 SW 6 16.09 Partly Cloudy SCT120 18 18 100% 75.87 0.0
06 23:15 Calm 16.09 Fair CLR 19 19 100% 75.87 0.0
06 22:55 S 6 16.09 Fair CLR 18 18 100% 75.84 0.0
06 22:35 Calm 16.09 Fair CLR 18 18 100% 75.87 0.0
06 22:15 Calm 16.09 Fair CLR 18 18 100% 75.9 0.0
06 21:55 Calm 16.09 Fair CLR 18 18 100% 75.9 0.0
06 21:35 Calm 16.09 Fair CLR 19 19 100% 75.87 0.0
06 21:15 Calm 16.09 Fair CLR 19 19 100% 75.87 0.0
06 20:55 Calm 16.09 Fair CLR 20 20 100% 75.84 0.0
06 20:35 Calm 16.09 Fair CLR 20 20 100% 75.87 0.0
06 20:15 W 7 16.09 Fair CLR 20 20 100% 75.9 0.0
06 19:55 SW 11 16.09 Fair CLR 21 20 94% 75.87 0.0
06 19:35 W 9 16.09 Fair CLR 22 20 88% 75.84 0.0
06 19:15 SW 15 16.09 Fair CLR 22 19 83% 75.82 0.0
06 18:55 SW 13 16.09 Fair CLR 22 20 88% 75.82 0.0
06 18:35 SW 13 16.09 Fair CLR 22 20 88% 75.82 0.0
06 18:15 SW 19 16.09 Fair CLR 22 20 88% 75.84 0.0
06 17:55 SW 15 16.09 Fair CLR 22 20 88% 75.84 0.0
06 17:35 SW 19 16.09 Fair CLR 21 20 94% 75.82 0.0
06 17:15 S 20 16.09 Partly Cloudy SCT120 21 19 88% 75.82 0.0
06 16:55 S 19 16.09 Fair CLR 21 19 88% 75.79 0.0
06 16:35 S 15 16.09 Fair CLR 21 19 88% 75.82 0.0
06 16:15 S 13 16.09 Partly Cloudy SCT025 SCT075 21 19 88% 75.87 0.0
06 15:55 S 20 16.09 Partly Cloudy SCT055 SCT065 21 20 94% 75.92 0.0
06 15:35 SW 19 G 35 16.09 Rain SCT060 BKN065 OVC110 22 18 78% 75.97 0.0
06 15:15 SW 15 G 28 16.09 Mostly Cloudy BKN080 BKN110 23 17 69% 75.95 0.0
06 14:55 SW 24 G 39 16.09 Mostly Cloudy BKN085 BKN110 23 17 69% 75.97 0.0
06 14:35 SW 28 G 39 16.09 Mostly Cloudy SCT034 SCT085 BKN110 23 17 69% 76 0.0
06 14:15 SW 26 G 37 16.09 Partly Cloudy SCT027 SCT033 SCT040 24 17 65% 25 76 0.0
06 13:55 SW 31 16.09 Light Rain SCT027 SCT033 SCT040 23 17 69% 76.02 0.0
06 13:35 SW 19 G 31 16.09 Partly Cloudy SCT095 23 17 69% 76.02 0.0
06 13:15 SW 20 G 30 16.09 Mostly Cloudy BKN065 23 17 69% 76.05 0.0
06 12:55 SW 22 G 28 16.09 Mostly Cloudy BKN065 22 16 69% 76.07 0.0
06 12:35 SW 17 16.09 Fair CLR 22 17 73% 76.07 0.0
06 12:15 SW 15 16.09 Fair CLR 22 16 69% 76.1 0.0
06 11:55 SW 22 G 30 16.09 Fair CLR 22 16 69% 76.07 0.0
06 11:35 S 17 16.09 Fair CLR 21 16 73% 76.1 0.0
06 11:15 S 19 G 26 16.09 Partly Cloudy SCT100 20 16 78% 76.1 0.0
06 10:55 S 20 G 28 16.09 Partly Cloudy SCT100 19 16 83% 76.1 0.0
06 10:35 S 22 G 28 16.09 Fair CLR 18 16 88% 76.1 0.0
06 10:15 SW 15 G 30 16.09 Mostly Cloudy BKN110 18 16 88% 76.12 0.0
06 09:55 S 20 16.09 Overcast OVC110 18 16 88% 76.12 0.0
06 09:35 S 20 G 31 16.09 Mostly Cloudy BKN110 17 16 94% 76.1 0.0
06 09:20 SW 15 16.09 Mostly Cloudy BKN110 17 16 94% 76.1 0.0
06 08:55 S 13 16.09 Overcast OVC110 17 16 94% 76.07 0.0
06 08:35 S 13 16.09 Partly Cloudy SCT120 16 16 100% 76.07 0.0
06 08:15 S 15 16.09 Fair CLR 16 16 100% 76.1 0.0
06 07:55 S 9 16.09 Fair CLR 16 15 94% 76.1 0.0
06 07:35 S 13 16.09 Fair CLR 15 15 100% 76.1 0.0
06 07:15 S 13 16.09 Partly Cloudy SCT120 15 15 100% 76.1 0.0
06 06:55 S 11 16.09 Partly Cloudy SCT120 15 15 100% 76.1 0.0
06 06:35 S 13 16.09 Fair CLR 15 15 100% 76.1 0.0
06 06:15 S 13 16.09 Fair CLR 14 14 100% 76.07 0.0
06 05:55 S 9 16.09 Fair CLR 14 14 100% 76.1 0.0
06 05:35 S 9 16.09 Fair CLR 14 14 100% 76.1 0.0
06 05:15 S 9 16.09 Fair CLR 14 14 100% 76.07 0.0
06 04:55 S 13 16.09 Fair CLR 15 15 100% 76.07 0.0
06 04:35 S 15 16.09 Fair CLR 14 14 100% 76.1 0.0
06 04:15 S 13 16.09 Fair CLR 14 14 100% 76.1 0.0
06 03:55 S 11 16.09 Fair CLR 15 15 100% 76.1 0.0
06 03:35 S 11 16.09 Fair CLR 15 15 100% 76.1 0.0
06 03:15 S 11 16.09 Fair CLR 15 15 100% 76.1 0.0
06 02:55 S 11 16.09 Fair CLR 15 15 100% 76.12 0.0
06 02:35 S 9 16.09 Fair CLR 15 15 100% 76.1 0.0
06 02:15 S 11 16.09 Fair CLR 16 15 94% 76.12 0.0
06 01:55 S 9 16.09 Fair CLR 16 15 94% 76.15 0.0
06 01:35 S 11 16.09 Fair CLR 16 15 94% 76.17 0.0
06 01:15 S 13 16.09 Fair CLR 16 15 94% 76.17 0.0
06 00:55 S 17 16.09 Fair CLR 17 15 88% 76.17 0.0
06 00:35 S 15 G 26 16.09 Fair CLR 17 15 88% 76.2 0.0
06 00:15 S 17 16.09 Fair CLR 17 15 88% 76.17 0.0
05 23:55 S 15 16.09 Fair CLR 17 15 88% 76.17 0.0
05 23:35 S 15 G 28 16.09 Fair CLR 18 15 83% 76.17 0.0
05 23:15 S 19 G 26 16.09 Fair CLR 18 15 83% 76.2 0.0
05 22:55 S 13 G 33 16.09 Fair CLR 18 16 88% 76.17 0.0
05 22:35 S 17 G 30 16.09 Fair CLR 19 16 83% 76.17 0.0
05 22:15 S 19 16.09 Fair CLR 19 16 83% 76.17 0.0
05 21:55 S 15 16.09 Fair CLR 20 16 78% 76.15 0.0
05 21:35 S 15 G 28 16.09 Fair CLR 20 16 78% 76.12 0.0
05 21:15 S 11 16.09 Fair CLR 21 15 69% 76.1 0.0
05 20:55 S 13 16.09 Fair CLR 21 15 69% 76.1 0.0
05 20:35 S 15 16.09 Fair CLR 22 15 65% 76.07 0.0
05 20:15 S 13 16.09 Fair CLR 22 15 65% 76.07 0.0
05 19:55 S 15 16.09 Fair CLR 22 15 65% 76.05 0.0
05 19:35 S 13 G 26 16.09 Fair CLR 23 15 61% 76.05 0.0
05 19:15 S 19 G 26 16.09 Fair CLR 23 15 61% 76.05 0.0
05 18:55 S 17 16.09 Fair CLR 24 15 57% 25 76.05 0.0
05 18:35 S 19 G 30 16.09 Fair CLR 23 15 61% 76.05 0.0
05 18:15 S 15 G 28 16.09 Partly Cloudy SCT065 24 15 57% 25 76.05 0.0
05 17:55 S 22 G 33 16.09 Partly Cloudy SCT065 25 15 54% 26 76.05 0.0
05 17:35 S 22 G 35 16.09 Fair CLR 25 15 54% 26 76.07 0.0
05 17:15 S 26 G 39 16.09 Fair CLR 25 15 54% 26 76.07 0.0
05 16:55 S 26 G 39 16.09 Fair CLR 25 15 54% 26 76.05 0.0
05 16:35 S 20 G 35 16.09 Fair CLR 25 15 54% 26 76.07 0.0
05 16:15 SW 26 G 31 16.09 Fair CLR 25 15 54% 26 76.1 0.0
05 15:55 S 24 G 37 16.09 Fair CLR 25 15 54% 26 76.1 0.0
05 15:35 S 28 G 39 16.09 Fair CLR 26 15 51% 27 76.12 0.0
05 15:15 SW 28 G 37 16.09 Fair CLR 26 15 51% 27 76.17 0.0
05 14:55 SW 28 G 33 16.09 Fair CLR 25 14 51% 26 76.2 0.0
05 14:35 S 28 G 35 16.09 Fair CLR 25 15 54% 26 76.2 0.0
05 14:15 SW 22 G 35 16.09 Fair CLR 25 15 54% 26 76.2 0.0
05 13:55 SW 13 G 19 16.09 Fair CLR 25 15 54% 26 76.2 0.0
05 13:35 S 17 G 35 16.09 Fair CLR 25 15 54% 26 76.23 0.0
05 13:15 SW 20 G 35 16.09 Fair CLR 25 15 54% 26 76.23 0.0
05 12:55 SW 24 G 33 16.09 Fair CLR 24 15 57% 25 76.23 0.0
05 12:35 S 22 G 30 16.09 Fair CLR 24 15 57% 25 76.25 0.0
05 12:15 SW 19 16.09 Fair CLR 23 15 61% 76.28 0.0
05 11:55 SW 19 16.09 Fair CLR 23 15 61% 76.3 0.0
05 11:35 S 17 G 28 16.09 Fair CLR 22 15 65% 76.3 0.0
05 11:15 SW 20 G 26 16.09 Fair CLR 22 15 65% 76.3 0.0
05 10:55 S 15 16.09 Fair CLR 21 15 69% 76.3 0.0
05 10:35 SW 19 16.09 Fair CLR 21 14 64% 76.28 0.0
05 10:15 SW 20 G 28 16.09 Fair CLR 20 14 69% 76.3 0.0
05 09:55 SW 22 16.09 Fair CLR 20 14 69% 76.3 0.0
05 09:35 SW 15 16.09 Fair CLR 19 14 73% 76.3 0.0
05 09:15 SW 22 16.09 Fair CLR 18 13 73% 76.3 0.0
05 08:55 SW 19 G 26 16.09 Fair CLR 17 13 77% 76.3 0.0
05 08:35 SW 13 G 19 16.09 Fair CLR 16 13 83% 76.28 0.0
05 08:15 SW 15 16.09 Fair CLR 15 12 82% 76.28 0.0
05 07:55 S 13 16.09 Fair CLR 14 12 88% 76.28 0.0
05 07:35 S 11 16.09 Fair CLR 13 12 94% 76.28 0.0
05 07:15 S 9 16.09 Fair CLR 12 11 94% 76.25 0.0
05 06:55 S 9 16.09 Fair CLR 11 11 100% 76.25 0.0
05 06:35 S 9 16.09 Fair CLR 11 11 100% 76.23 0.0
05 06:15 S 9 16.09 Fair CLR 11 11 100% 76.23 0.0
05 05:55 SW 7 16.09 Fair CLR 11 11 100% 76.2 0.0
05 05:35 S 7 16.09 Fair CLR 11 11 100% 76.2 0.0
05 05:15 S 7 16.09 Fair CLR 11 11 100% 76.17 0.0
05 04:55 SW 9 16.09 Fair CLR 12 11 94% 76.17 0.0
05 04:35 SW 7 16.09 Fair CLR 12 11 94% 76.17 0.0
05 04:15 SW 9 16.09 Fair CLR 12 11 94% 76.17 0.0
05 03:55 SW 9 16.09 Fair CLR 13 11 88% 76.17 0.0
05 03:35 SW 11 16.09 Fair CLR 13 11 88% 76.17 0.0
05 03:15 SW 13 16.09 Fair CLR 14 11 82% 76.15 0.0
05 02:55 SW 11 16.09 Fair CLR 14 11 82% 76.15 0.0
05 02:35 SW 13 16.09 Fair CLR 15 11 77% 76.15 0.0
05 02:15 S 15 16.09 Fair CLR 15 11 77% 76.15 0.0
05 01:55 SW 15 16.09 Fair CLR 15 11 77% 76.15 0.0
05 01:35 S 13 16.09 Fair CLR 15 11 77% 76.15 0.0
05 01:15 S 17 16.09 Fair CLR 16 12 77% 76.17 0.0
05 00:55 S 15 16.09 Fair CLR 16 12 77% 76.17 0.0
05 00:35 S 17 G 26 16.09 Fair CLR 16 12 77% 76.17 0.0
05 00:15 S 20 G 30 16.09 Fair CLR 17 12 73% 76.15 0.0
04 23:55 S 19 G 31 16.09 Fair CLR 17 12 73% 76.15 0.0
04 23:35 S 17 16.09 Fair CLR 17 12 73% 76.15 0.0
04 23:15 S 20 G 28 16.09 Fair CLR 17 13 77% 76.15 0.0
04 22:55 S 20 G 30 16.09 Fair CLR 17 13 77% 76.12 0.0
04 22:35 S 15 16.09 Fair CLR 17 13 77% 76.12 0.0
04 22:15 S 13 16.09 Fair CLR 18 12 68% 76.1 0.0
04 21:55 S 13 16.09 Fair CLR 18 11 64% 76.1 0.0
04 21:35 S 9 16.09 Fair CLR 18 10 60% 76.07 0.0
04 21:15 S 7 16.09 Fair CLR 18 10 60% 76.05 0.0
04 20:55 S 6 16.09 Fair CLR 19 10 56% 76.05 0.0
04 20:35 S 7 16.09 Fair CLR 19 10 56% 76.02 0.0
04 20:15 S 7 16.09 Fair CLR 20 11 56% 76.02 0.0
04 19:55 S 9 16.09 Fair CLR 21 11 53% 76 0.0
04 19:35 S 9 16.09 Fair CLR 21 11 53% 75.97 0.0
04 19:15 SW 9 16.09 Fair CLR 23 11 47% 76 0.0
04 18:55 SW 13 16.09 Fair CLR 22 11 50% 76 0.0
04 18:35 SW 13 16.09 Fair CLR 23 11 47% 75.97 0.0
04 18:15 SW 20 16.09 Fair CLR 23 11 47% 76 0.0
04 17:55 SW 19 16.09 Fair CLR 24 11 44% 25 76 0.0
04 17:35 SW 19 16.09 Fair CLR 24 11 44% 25 76 0.0
04 17:15 SW 19 16.09 Fair CLR 23 11 47% 76.02 0.0
04 16:55 SW 26 16.09 Fair CLR 24 11 44% 25 76.02 0.0
04 16:35 SW 26 G 35 16.09 Fair CLR 24 11 44% 25 76.02 0.0
04 16:15 SW 24 G 33 16.09 Fair CLR 24 10 41% 25 76.02 0.0
04 15:55 SW 24 G 30 16.09 Fair CLR 25 11 42% 26 76.05 0.0
04 15:35 SW 9 G 31 16.09 Fair CLR 24 10 41% 25 76.05 0.0
04 15:15 SW 26 G 35 16.09 Fair CLR 23 11 47% 76.07 0.0
04 14:55 SW 28 G 33 16.09 Fair CLR 23 11 47% 76.1 0.0
04 14:35 SW 28 G 37 16.09 Fair CLR 23 11 47% 76.1 0.0
04 14:15 SW 22 G 31 16.09 Fair CLR 23 12 50% 76.12 0.0
04 13:55 S 22 G 28 16.09 Fair CLR 22 11 50% 76.12 0.0
04 13:35 SW 22 G 28 16.09 Fair CLR 22 12 53% 76.15 0.0
04 13:15 SW 22 G 30 16.09 Fair CLR 22 11 50% 76.17 0.0
04 12:55 SW 19 G 26 16.09 Fair CLR 21 11 53% 76.2 0.0
04 12:35 W 17 16.09 Fair CLR 21 11 53% 76.23 0.0
04 12:15 SW 15 G 30 16.09 Fair CLR 21 11 53% 76.23 0.0
04 11:55 SW 19 G 28 16.09 Fair CLR 20 12 60% 76.25 0.0
04 11:35 S 11 16.09 Fair CLR 19 12 64% 76.25 0.0
04 11:15 SW 11 16.09 Fair CLR 18 12 68% 76.28 0.0
04 10:55 SW 13 16.09 Fair CLR 18 12 68% 76.28 0.0
04 10:35 SW 13 16.09 Fair CLR 17 12 73% 76.3 0.0
04 10:15 SW 13 16.09 Fair CLR 16 11 72% 76.3 0.0
04 09:55 SW 9 16.09 Fair CLR 15 11 77% 76.3 0.0
04 09:35 W 13 16.09 Fair CLR 13 11 88% 76.3 0.0
04 09:15 SW 11 16.09 Fair CLR 12 11 94% 76.3 0.0
04 08:55 SW 11 16.09 Fair CLR 11 11 100% 76.3 0.0
04 08:35 SW 13 16.09 Fair CLR 10 10 100% 8 76.33 0.0
04 08:15 SW 9 16.09 Fair CLR 8 8 100% 7 76.33 0.0
04 07:55 SW 6 16.09 Fair CLR 7 7 100% 76.33 0.0
04 07:35 SW 6 16.09 Fair CLR 6 6 100% 76.35 0.0
04 07:15 Calm 16.09 Fair CLR 5 5 100% 76.33 0.0
04 06:55 Calm 16.09 Fair CLR 5 5 100% 76.33 0.0
04 06:35 Calm 16.09 Fair CLR 5 5 100% 76.3 0.0
04 06:15 SW 6 16.09 Fair CLR 5 5 100% 76.3 0.0
04 05:55 Calm 16.09 Fair CLR 5 5 100% 76.3 0.0
04 05:35 Calm 16.09 Fair CLR 5 5 100% 76.3 0.0
04 05:15 Calm 16.09 Fair CLR 5 5 100% 76.3 0.0
04 04:55 Calm 16.09 Fair CLR 4 4 100% 76.3 0.0
04 04:35 Calm 16.09 Fair CLR 3 3 100% 76.33 0.0
04 04:15 Calm 16.09 Fair CLR 3 3 100% 76.33 0.0
04 03:55 Calm 16.09 Fair CLR 3 3 100% 76.35 0.0
04 03:35 Calm 16.09 Fair CLR 3 3 100% 76.35 0.0
04 03:15 Calm 16.09 Fair CLR 3 3 100% 76.35 0.0
Date Time (edt) Wind (kph) Vis. (km) Weather Sky Cond. Air Dwpt Max. Min. Relative Humidity Wind Chill (°C) Heat Index (°C) altimeter (cm) sea level (mb) 1 hr 3 hr 6 hr
6 hour
Temperature (ºC) Pressure Precipitation (cm)